Вернуться в каталог

CZ-6A DEB

АктивенPO
NORAD 68407·DEBRIS·🇨🇳 China

Запущен Nov 11, 2022 с Taiyuan Satellite Launch Center

Loading…

Ближайшие Пролёты (ближайшие 24 часа)

TLE

СвежийSource: Space-Track

Эпоха: Sep 14, 2026, 05:22 UTC

1 68407U 22151AJJ 26257.22396583  .00006585  00000-0  99712-3 0  9991
2 68407  98.7969 357.5499 0085383  33.7272 326.9325 14.72094524178125

Отслеживайте CZ-6A DEB в реальном времени с AllMySat

Download on the App Store